Погода в Барио

Малайзия     3°45′00″N   115°27′00″E
темп.,
°C
ветер,
м/с
пор.,
м/с
влажн.,
%
обл.,
%
осадки,
мм/ч
давл.,
гПа
погр.,
м
23 октября, сб
сб2323:00+17сз1110093 4.1 101687
02:00+17зсз1210084 7.4 1014116
05:00+17юз019999 2.1 101481
08:00+19ююз019672 2.6 1016282
11:00+21з1190100 1.7 1015603
14:00+21з1192100 5.8 1012492
17:00+18з1198100 6.1 101225
20:00+17зсз1199100 10.0 101526
24 октября, вс
вс2423:00+17зсз1199100 0.8 101625
02:00+17зюз12100100 4.0 1013109
05:00+17юз01100100 1.8 101379
08:00+18ю1198100 1.8 1015151
11:00+23юз127075 0.1 1013753
14:00+21зюз128447 1.2 1011390
17:00+20зсз129489 2.1 1011214
20:00+18зсз1198100 4.5 101416
25 октября, пн
пн2523:00+17юз009867 0.1 101413
02:00+17ююв0098100 0.1 101216
05:00+16зсз0098100 0.0 101212
08:00+19юз0193100 0.0 1013149
11:00+26зюз125756 0.0 10111412
14:00+22з1291100 3.3 1009342
17:00+20зсз1197100 5.3 101047
20:00+18сз0098100 8.1 101312
26 октября, вт
вт2623:00+17св009982 0.8 101318
02:00+17ссв0099100 1.6 101221
05:00+17юв0099100 0.1 101215
08:00+20ююв019391 0.1 1013215
11:00+24ююв117597 0.9 1012979
14:00+22юз018892 5.8 1009444
17:00+21зсз0196100 5.8 100954
20:00+18ссв0098100 8.6 101211
27 октября, ср
ср2723:00+17в1199100 0.6 101319
02:00+17в119932 0.6 101222
05:00+16в1110036 0.0 101227
08:00+19вюв129436 0.0 1013266
11:00+26в245775 0.0 10111618
14:00+26в245488 0.1 10081862
17:00+23в26697 0.3 1009524
20:00+17в119563 0.3 101317